Bar Harbor, ME

1:22 AM EDT on June 24, 2017 (GMT -0400)
Hancock County-Bar Harbor

Weather History for KBHB - December, 2012

Change the Weather History Date:

Friday, December 7, 2012

  Actual Average Record
Temperature  
Mean Temperature 32 °F -  
Max Temperature 44 °F 41 °F 60 °F (1953)
Min Temperature 19 °F 25 °F 6 °F (2007)
Degree Days  
Heating Degree Days 34    
Moisture  
Dew Point 30 °F    
Average Humidity 88    
Maximum Humidity 100    
Minimum Humidity 70    
Precipitation  
Precipitation 0.08 in - - ()
Sea Level Pressure  
Sea Level Pressure 30.17 in    
Wind  
Wind Speed 2 mph (SSW)    
Max Wind Speed 14 mph    
Max Gust Speed 17 mph    
Visibility 9 miles    
Events      
Averages and records for this station are not official NWS values.
T = Trace of Precipitation, MM = Missing Value Source: NWS Daily Summary

Daily Weather History Graph

Daily Weather History Graph

Search for Another Location

Airport or City:

Trip Planner

Search our weather history database for the weather conditions in past years. The results will help you decide how hot, cold, wet, or windy it might be!

Date:

Astronomy

Dec. 07, 2012 Rise Set
Actual Time 6:56 AM EST 3:53 PM EST
Civil Twilight 6:23 AM EST 4:26 PM EST
Nautical Twilight 5:46 AM EST 5:03 PM EST
Astronomical Twilight 5:11 AM EST 5:38 PM EST
Moon No Moon Rise 12:00 PM EST (12/7)
Length of Visible Light 10h 03m
Length of Day
8h 57m
Last Quarter, 39% of the Moon is Illuminated
Dec 7
Last Quarter
Dec 13
New
Dec 20
First Quarter
Dec 28
Full
Jan 4
Last Quarter

Hourly Weather History & Observations

Time (EST) Temp. Windchill Dew Point Humidity Pressure Visibility Wind Dir Wind Speed Gust Speed Precip Events Conditions
12:35 AM 21.2 °F - 19.4 °F 93% 30.30 in 10.0 mi Calm Calm - N/A   Clear
12:55 AM 21.2 °F - 19.4 °F 93% 30.29 in 10.0 mi Calm Calm - N/A   Clear
1:15 AM 21.2 °F - 19.4 °F 93% 30.30 in 10.0 mi Calm Calm - N/A   Clear
1:35 AM 21.2 °F - 19.4 °F 93% 30.30 in 10.0 mi Calm Calm - N/A   Clear
1:55 AM 21.2 °F - 19.4 °F 93% 30.30 in 10.0 mi Calm Calm - N/A   Clear
2:15 AM 21.2 °F - 19.4 °F 93% 30.29 in 10.0 mi Calm Calm - N/A   Clear
2:35 AM 21.2 °F - 19.4 °F 93% 30.28 in 10.0 mi Calm Calm - N/A   Clear
2:55 AM 21.2 °F - 19.4 °F 93% 30.28 in 10.0 mi Calm Calm - N/A   Clear
3:15 AM 21.2 °F - 19.4 °F 93% 30.27 in 10.0 mi Calm Calm - N/A   Clear
3:35 AM 21.2 °F - 19.4 °F 93% 30.27 in 8.0 mi Calm Calm - N/A   Clear
3:55 AM 19.4 °F - 17.6 °F 93% 30.27 in 10.0 mi Calm Calm - N/A   Clear
4:15 AM 19.4 °F - 17.6 °F 93% 30.27 in 10.0 mi Calm Calm - N/A   Clear
4:35 AM 19.4 °F - 17.6 °F 93% 30.27 in 10.0 mi Calm Calm - N/A   Clear
4:55 AM 19.4 °F - 17.6 °F 93% 30.27 in 10.0 mi Calm Calm - N/A   Clear
5:15 AM 19.4 °F - 17.6 °F 93% 30.27 in 10.0 mi Calm Calm - N/A   Clear
5:35 AM 19.4 °F - 17.6 °F 93% 30.27 in 10.0 mi Calm Calm - N/A   Clear
5:55 AM 19.4 °F - 17.6 °F 93% 30.27 in 10.0 mi Calm Calm - N/A   Clear
6:15 AM 19.4 °F - 17.6 °F 93% 30.27 in 10.0 mi Calm Calm - N/A   Clear
6:35 AM 19.4 °F - 19.4 °F 100% 30.26 in 10.0 mi Calm Calm - N/A   Clear
6:55 AM 21.2 °F - 21.2 °F 100% 30.25 in 10.0 mi Calm Calm - N/A   Clear
7:15 AM 23.0 °F - 21.2 °F 93% 30.25 in 10.0 mi Calm Calm - N/A   Clear
7:35 AM 23.0 °F - 21.2 °F 93% 30.26 in 10.0 mi Calm Calm - N/A   Clear
7:55 AM 24.8 °F - 23.0 °F 93% 30.26 in 10.0 mi Calm Calm - N/A   Clear
8:15 AM 24.8 °F - 24.8 °F 100% 30.25 in 9.0 mi Calm Calm - N/A   Clear
8:35 AM 26.6 °F - 24.8 °F 93% 30.25 in 8.0 mi Calm Calm - N/A   Clear
8:55 AM 28.4 °F - 26.6 °F 93% 30.24 in 10.0 mi Calm Calm - N/A   Clear
9:15 AM 28.4 °F - 28.4 °F 100% 30.23 in 8.0 mi Calm Calm - N/A   Clear
9:35 AM 30.2 °F - 28.4 °F 93% 30.22 in 10.0 mi Calm Calm - N/A   Clear
9:55 AM 33.8 °F 30.8 °F 30.2 °F 87% 30.21 in 0.5 mi NNE 3.5 mph - N/A   Unknown
10:15 AM 33.8 °F - 30.2 °F 87% 30.20 in 5.0 mi Calm Calm - N/A   Clear
10:35 AM 35.6 °F - 32.0 °F 87% 30.19 in 6.0 mi Calm Calm - N/A   Clear
10:55 AM 37.4 °F 34.9 °F 33.8 °F 87% 30.18 in 10.0 mi NNE 3.5 mph - N/A   Mostly Cloudy
11:15 AM 39.2 °F - 33.8 °F 81% 30.17 in 10.0 mi Calm Calm - N/A   Overcast
11:35 AM 41.0 °F 36.4 °F 33.8 °F 76% 30.16 in 10.0 mi WSW 6.9 mph - N/A   Mostly Cloudy
11:55 AM 41.0 °F 37.1 °F 33.8 °F 76% 30.16 in 10.0 mi WSW 5.8 mph - N/A   Overcast
12:15 PM 42.8 °F 38.6 °F 33.8 °F 70% 30.15 in 10.0 mi SW 6.9 mph - N/A   Overcast
12:35 PM 42.8 °F 37.5 °F 33.8 °F 70% 30.15 in 10.0 mi SW 9.2 mph - N/A   Overcast
12:55 PM 44.6 °F 38.4 °F 35.6 °F 71% 30.14 in 4.0 mi SSW 12.7 mph - N/A   Mostly Cloudy
1:15 PM 42.8 °F 36.6 °F 33.8 °F 70% 30.14 in 0.5 mi SSW 11.5 mph - N/A   Overcast
1:35 PM 42.8 °F 37.0 °F 33.8 °F 70% 30.13 in 5.0 mi SW 10.4 mph 16.1 mph N/A   Overcast
1:55 PM 42.8 °F 37.0 °F 33.8 °F 70% 30.13 in 4.0 mi SSW 10.4 mph - N/A   Overcast
2:15 PM 42.8 °F 35.8 °F 33.8 °F 70% 30.12 in 7.0 mi SSW 13.8 mph 17.3 mph N/A   Overcast
2:35 PM 42.8 °F 38.0 °F 33.8 °F 70% 30.12 in 5.0 mi SW 8.1 mph - N/A   Overcast
2:55 PM 42.8 °F 37.5 °F 33.8 °F 70% 30.12 in 10.0 mi SW 9.2 mph - N/A   Overcast
3:35 PM 42.8 °F 38.6 °F 33.8 °F 70% 30.12 in 10.0 mi SSW 6.9 mph - N/A   Overcast
3:55 PM 42.8 °F 38.0 °F 35.6 °F 76% 30.11 in 10.0 mi SSW 8.1 mph - N/A   Overcast
4:15 PM 42.8 °F 38.0 °F 35.6 °F 76% 30.11 in 10.0 mi SSW 8.1 mph - N/A   Overcast
4:35 PM 41.0 °F 35.8 °F 35.6 °F 81% 30.09 in 10.0 mi South 8.1 mph - N/A   Overcast
4:55 PM 42.8 °F 37.5 °F 35.6 °F 76% 30.09 in 10.0 mi South 9.2 mph - N/A   Overcast
5:15 PM 41.0 °F 35.8 °F 35.6 °F 81% 30.09 in 10.0 mi SSE 8.1 mph - N/A   Overcast
5:35 PM 41.0 °F 38.0 °F 35.6 °F 81% 30.09 in 10.0 mi South 4.6 mph - N/A   Overcast
5:55 PM 42.8 °F 38.6 °F 35.6 °F 76% 30.09 in 10.0 mi South 6.9 mph - N/A   Overcast
6:15 PM 42.8 °F 39.3 °F 35.6 °F 76% 30.08 in 10.0 mi South 5.8 mph - N/A   Overcast
6:35 PM 42.8 °F 38.6 °F 37.4 °F 81% 30.08 in 10.0 mi South 6.9 mph - N/A   Overcast
6:55 PM 42.8 °F 39.3 °F 39.2 °F 87% 30.07 in 10.0 mi South 5.8 mph - N/A   Overcast
7:15 PM 44.6 °F 38.4 °F 42.8 °F 93% 30.08 in 10.0 mi SSW 12.7 mph - N/A   Overcast
7:35 PM 44.6 °F 40.2 °F 42.8 °F 93% 30.07 in 10.0 mi SSW 8.1 mph - N/A   Overcast
8:15 PM 44.6 °F 43.1 °F 42.8 °F 93% 30.07 in 10.0 mi SW 3.5 mph - N/A   Overcast
8:35 PM 44.6 °F 41.4 °F 42.8 °F 93% 30.07 in 7.0 mi SW 5.8 mph - 0.01 in   Overcast
8:55 PM 42.8 °F 40.1 °F 42.8 °F 100% 30.07 in 8.0 mi SW 4.6 mph - 0.02 in   Overcast
9:15 PM 42.8 °F 38.6 °F 42.8 °F 100% 30.07 in 9.0 mi WSW 6.9 mph - 0.02 in   Overcast
9:55 PM 42.8 °F 41.1 °F 41.0 °F 93% 30.06 in 8.0 mi WSW 3.5 mph - 0.05 in   Overcast
10:15 PM 41.0 °F 39.0 °F 41.0 °F 100% 30.06 in 9.0 mi WSW 3.5 mph - N/A   Overcast
10:35 PM 41.0 °F - 41.0 °F 100% 30.05 in 9.0 mi Calm Calm - 0.01 in   Overcast
10:55 PM 41.0 °F - 41.0 °F 100% 30.06 in 7.0 mi Calm Calm - 0.01 in   Overcast
11:15 PM 41.0 °F - 41.0 °F 100% 30.05 in 5.0 mi Calm Calm - N/A   Overcast
11:35 PM 39.2 °F - 39.2 °F 100% 30.05 in 5.0 mi Calm Calm - N/A   Overcast
11:55 PM 39.2 °F - 39.2 °F 100% 30.04 in 4.0 mi Calm Calm - N/A   Overcast